Weather History for KBCK - April, 2014

Change the Weather History Date:

Monday, April 14, 2014

  Actual Average (KLSE) Record (KLSE)
Temperature  
Mean Temperature 28 °F 48 °F  
Max Temperature 34 °F 59 °F 90 °F (2003)
Min Temperature 19 °F 37 °F 20 °F (1950)
Degree Days  
Heating Degree Days 37 17  
Month to date heating degree days 281  
Since 1 July heating degree days 6734  
Cooling Degree Days 0 0  
Month to date cooling degree days 0  
Year to date cooling degree days 0  
Moisture  
Dew Point 21 °F    
Average Humidity 67    
Maximum Humidity 100    
Minimum Humidity 44    
Precipitation  
Precipitation 0.01 in 0.12 in 1.54 in (2013)
Month to date precipitation 1.43  
Year to date precipitation 5.64  
Snow  
Snow 0.00 in 0.10 in 3.70 in (1928)
Month to date snowfall 1.1  
Since 1 July snowfall 42.7  
Snow Depth -    
Sea Level Pressure  
Sea Level Pressure 29.93 in    
Wind  
Wind Speed 10 mph (NNW)    
Max Wind Speed 14 mph    
Max Gust Speed 25 mph    
Visibility 9 miles    
Events Snow    
T = Trace of Precipitation, MM = Missing Value Source: NWS Daily Summary

Daily Weather History Graph

Daily Weather History Graph

Search for Another Location

Airport or City:

Trip Planner

Search our weather history database for the weather conditions in past years. The results will help you decide how hot, cold, wet, or windy it might be!

Date:

Astronomy

Apr. 14, 2014 Rise Set
Actual Time 6:21 AM CDT 7:46 PM CDT
Civil Twilight 5:51 AM CDT 8:16 PM CDT
Nautical Twilight 5:15 AM CDT 8:53 PM CDT
Astronomical Twilight 4:36 AM CDT 9:32 PM CDT
Moon 7:25 PM CDT (4/14) 5:55 AM CDT (4/14)
Length of Visible Light 14h 25m
Length of Day
13h 25m
Full, 100% of the Moon is Illuminated
Apr 14
Full
Apr 15
Full
Apr 22
Last Quarter
Apr 29
New
May 6
First Quarter

Hourly Weather History & Observations

Time (CDT) Temp. Windchill Dew Point Humidity Pressure Visibility Wind Dir Wind Speed Gust Speed Precip Events Conditions
12:15 AM 34.0 °F 26.0 °F 34.0 °F 100% 29.70 in 4.0 mi North 10.4 mph 16.1 mph N/A Snow Light Snow
12:35 AM 33.8 °F 25.8 °F 33.8 °F 100% 29.70 in 1.8 mi North 10.4 mph 20.7 mph 0.01 in Snow Light Snow
12:55 AM 33.3 °F 24.6 °F 33.3 °F 100% 29.69 in 1.5 mi North 11.5 mph 18.4 mph 0.01 in Snow Light Snow
1:15 AM 33.3 °F 24.1 °F 33.3 °F 100% 29.69 in 1.5 mi North 12.7 mph 19.6 mph N/A Snow Light Snow
1:35 AM 33.1 °F 25.5 °F 33.1 °F 100% 29.70 in 1.5 mi North 9.2 mph - N/A Snow Light Snow
1:55 AM 33.1 °F 23.4 °F 33.1 °F 100% 29.70 in 1.2 mi North 13.8 mph 25.3 mph N/A Snow Light Snow
2:15 AM 32.9 °F 24.7 °F 32.9 °F 100% 29.71 in 0.8 mi North 10.4 mph 19.6 mph N/A Snow Light Snow
2:35 AM 32.9 °F 25.3 °F 32.9 °F 100% 29.72 in 0.8 mi NNW 9.2 mph 21.9 mph N/A Snow Light Snow
2:55 AM 32.4 °F 24.6 °F 32.4 °F 100% 29.73 in 0.5 mi North 9.2 mph 17.3 mph N/A Snow Snow
7:35 AM 30.2 °F 21.3 °F 27.7 °F 90% 29.86 in 10.0 mi NNW 10.4 mph - N/A   Overcast
7:55 AM 30.4 °F 21.0 °F 27.9 °F 90% 29.88 in 10.0 mi NNW 11.5 mph 16.1 mph N/A   Overcast
8:15 AM 30.4 °F 22.2 °F 25.5 °F 82% 29.90 in 10.0 mi NNW 9.2 mph - N/A   Overcast
8:35 AM 30.2 °F 21.9 °F 25.2 °F 82% 29.89 in 10.0 mi NNW 9.2 mph - N/A   Overcast
8:55 AM 30.2 °F 21.3 °F 25.0 °F 81% 29.89 in 10.0 mi North 10.4 mph - N/A   Overcast
9:15 AM 30.9 °F 22.8 °F 24.6 °F 77% 29.89 in 10.0 mi NNW 9.2 mph 20.7 mph N/A   Overcast
9:35 AM 30.6 °F 22.4 °F 23.9 °F 76% 29.90 in 10.0 mi NNW 9.2 mph 18.4 mph N/A   Overcast
9:55 AM 30.7 °F 22.6 °F 23.9 °F 76% 29.91 in 10.0 mi North 9.2 mph 20.7 mph N/A   Overcast
10:15 AM 30.7 °F 20.9 °F 23.0 °F 73% 29.91 in 10.0 mi NNW 12.7 mph 24.2 mph N/A   Overcast
10:35 AM 30.9 °F 25.2 °F 22.6 °F 71% 29.91 in 10.0 mi North 5.8 mph 18.4 mph N/A   Mostly Cloudy
10:55 AM 31.6 °F 22.6 °F 22.8 °F 70% 29.92 in 10.0 mi NNW 11.5 mph - N/A   Mostly Cloudy
11:15 AM 31.6 °F 25.1 °F 23.7 °F 73% 29.93 in 10.0 mi NNW 6.9 mph - N/A   Overcast
11:35 AM 31.1 °F 21.9 °F 21.6 °F 68% 29.95 in 10.0 mi NW 11.5 mph 18.4 mph N/A   Overcast
11:55 AM 31.8 °F 22.3 °F 21.2 °F 65% 29.96 in 10.0 mi NNW 12.7 mph 18.4 mph N/A   Overcast
12:15 PM 32.5 °F 23.7 °F 21.7 °F 64% 29.96 in 10.0 mi North 11.5 mph 16.1 mph N/A   Overcast
12:35 PM 32.0 °F 23.6 °F 22.8 °F 69% 29.97 in 10.0 mi NW 10.4 mph - N/A   Overcast
12:55 PM 32.2 °F 25.8 °F 21.4 °F 64% 29.97 in 10.0 mi NNW 6.9 mph - N/A   Overcast
1:15 PM 31.6 °F 22.1 °F 22.5 °F 69% 29.97 in 10.0 mi NNW 12.7 mph 17.3 mph N/A   Overcast
1:35 PM 31.6 °F 23.7 °F 21.7 °F 67% 29.98 in 10.0 mi NW 9.2 mph - N/A   Overcast
1:55 PM 32.0 °F 24.2 °F 20.8 °F 63% 29.98 in 10.0 mi NW 9.2 mph - N/A   Overcast
2:15 PM 32.4 °F 24.6 °F 20.7 °F 62% 29.98 in 10.0 mi NW 9.2 mph - N/A   Overcast
2:35 PM 32.2 °F 24.4 °F 20.8 °F 63% 29.98 in 10.0 mi NNW 9.2 mph - N/A   Overcast
2:55 PM 32.9 °F 25.9 °F 20.3 °F 60% 29.97 in 10.0 mi North 8.1 mph - N/A   Overcast
3:15 PM 33.1 °F 24.9 °F 20.3 °F 59% 29.97 in 10.0 mi NNW 10.4 mph 17.3 mph N/A   Overcast
3:35 PM 34.0 °F 25.5 °F 20.7 °F 58% 29.97 in 10.0 mi NNW 11.5 mph 17.3 mph N/A   Overcast
3:55 PM 32.9 °F 25.9 °F 19.9 °F 59% 29.96 in 10.0 mi NNW 8.1 mph 17.3 mph N/A   Mostly Cloudy
4:15 PM 33.3 °F 24.1 °F 19.0 °F 56% 29.96 in 10.0 mi NW 12.7 mph 17.3 mph N/A   Mostly Cloudy
4:35 PM 34.2 °F 25.2 °F 16.0 °F 47% 29.96 in 10.0 mi NNW 12.7 mph 19.6 mph N/A   Mostly Cloudy
4:55 PM 33.3 °F 25.1 °F 14.5 °F 46% 29.97 in 10.0 mi NW 10.4 mph 18.4 mph N/A   Scattered Clouds
5:15 PM 32.9 °F 25.3 °F 16.2 °F 50% 29.96 in 10.0 mi NNW 9.2 mph - N/A   Scattered Clouds
5:35 PM 32.9 °F 24.1 °F 14.9 °F 48% 29.96 in 10.0 mi NW 11.5 mph 16.1 mph N/A   Overcast
5:55 PM 34.0 °F 26.6 °F 15.1 °F 46% 29.96 in 10.0 mi NNW 9.2 mph - N/A   Overcast
6:15 PM 33.6 °F 25.6 °F 13.6 °F 44% 29.97 in 10.0 mi NW 10.4 mph - N/A   Scattered Clouds
6:35 PM 33.3 °F 25.7 °F 13.6 °F 44% 29.98 in 10.0 mi NW 9.2 mph - N/A   Scattered Clouds
6:55 PM 32.0 °F 25.6 °F 13.1 °F 46% 29.99 in 10.0 mi NNW 6.9 mph - N/A   Scattered Clouds
7:15 PM 32.0 °F 26.4 °F 12.9 °F 45% 30.00 in 10.0 mi NNW 5.8 mph - N/A   Scattered Clouds
7:35 PM 31.5 °F 23.5 °F 11.7 °F 44% 30.00 in 10.0 mi NW 9.2 mph - N/A   Scattered Clouds
7:55 PM 31.1 °F 25.4 °F 12.4 °F 46% 30.01 in 10.0 mi NW 5.8 mph - N/A   Mostly Cloudy
8:15 PM 30.7 °F 24.1 °F 11.7 °F 45% 30.01 in 10.0 mi NW 6.9 mph - N/A   Overcast
8:35 PM 30.2 °F 22.6 °F 12.7 °F 48% 30.03 in 10.0 mi NNW 8.1 mph - N/A   Overcast
8:55 PM 29.7 °F 22.8 °F 12.2 °F 48% 30.04 in 10.0 mi NNW 6.9 mph - N/A   Mostly Cloudy
9:15 PM 28.9 °F 22.8 °F 12.0 °F 49% 30.04 in 10.0 mi NNW 5.8 mph - N/A   Scattered Clouds
9:35 PM 28.4 °F 22.2 °F 11.8 °F 50% 30.04 in 10.0 mi NW 5.8 mph - N/A   Scattered Clouds
9:55 PM 27.7 °F 22.4 °F 11.8 °F 51% 30.05 in 10.0 mi NNW 4.6 mph - N/A   Clear
10:15 PM 27.1 °F 23.2 °F 11.8 °F 53% 30.05 in 10.0 mi NW 3.5 mph - N/A   Clear
10:35 PM 26.6 °F - 12.0 °F 54% 30.05 in 10.0 mi Calm Calm - N/A   Clear
10:55 PM 26.1 °F 21.9 °F 12.2 °F 56% 30.05 in 10.0 mi NW 3.5 mph - N/A   Clear
11:15 PM 25.7 °F - 12.2 °F 57% 30.05 in 10.0 mi Calm Calm - N/A   Clear
11:35 PM 22.6 °F - 13.6 °F 68% 30.05 in 10.0 mi Calm Calm - N/A   Clear
11:55 PM 19.8 °F - 14.7 °F 81% 30.05 in 10.0 mi Calm Calm - N/A   Clear